Location: La Comballaz
(46.3780°N, 7.0817°E)
Time: 02:45:59
(UTC+00:00)

Tiangong - Visible Passes

Search period start: 21 September 2021 00:00
Search period end: 01 October 2021 00:00
Orbit: 380 x 385 km, 41.5° (Epoch: 20 September)

Date Brightness Start Highest point End Pass type
(mag) Time Alt. Az. Time Alt. Az. Time Alt. Az.
27 Sep 3.3 04:34:44 10° SSW 04:37:05 19° SSE 04:39:25 10° ESE visible
28 Sep 3.5 03:36:49 14° SSE 03:37:08 14° SSE 03:38:50 10° ESE visible
29 Sep 2.7 04:11:49 17° SSW 04:13:22 25° SSE 04:16:02 10° ESE visible
30 Sep 3.7 03:14:36 16° SE 03:14:36 16° SE 03:15:43 10° ESE visible
30 Sep 2.3 04:46:51 10° WSW 04:49:44 33° S 04:52:37 10° ESE visible
